Regional Weather Roundup
Issued by NWS Goodland, KS

Home | Current Version | Previous Version | Graphics & Text | Print | Product List | Glossary On
Versions: 1 2 3 4 5 6 7 8 9 10 11 12 13 14 15 16 17 18 19 20 21 22 23 24 25 26 27 28 29 30 31 32 33 34 35 36 37 38 39 40 41 42 43 44 45 46 47 48 49 50
000
ASUS43 KGLD 291959
RWRGLD

GOODLAND FORECAST AREA HOURLY WEATHER ROUNDUP
NATIONAL WEATHER SERVICE GOODLAND KS
200 PM MDT SUN MAY 29 2016

...OFFICIAL OBSERVATIONS...

CITY           SKY/WX    TMP DP  RH WIND       PRES   REMARKS
GOODLAND KS    MOSUNNY   81  55  40 S13       30.05F
HILL CITY KS   MOSUNNY   83  56  39 S12       30.05F
IMPERIAL NEB   SUNNY     80  53  39 S10       30.05F
MCCOOK NEB     MOSUNNY   84  56  38 VRB7      30.02F
AKRON CO       SUNNY     77  46  33 S7        30.10F
BURLINGTON CO  MOSUNNY   81  50  33 S14G24    30.08F
LIMON CO       SUNNY     73  44  35 S6        30.12F
$$

...UNOFFICIAL OBSERVATIONS...

CITY           SKY/WX    TMP DP  RH WIND       PRES   REMARKS
GOVE KS          N/A     63  32  31 MISG        N/A
LENORA KS        N/A     82  32  16 MISG        N/A
SHARON SPRINGS   N/A     83  60  45 S14         N/A
TRIBUNE KS     MOSUNNY   84  57  39 S13G20    30.06F
KIT CARSON CO    N/A     80  47  31 MISG        N/A
YUMA CO          N/A     80  47  31 CALM        N/A
$$




USA.gov is the U.S. government's official web portal to all federal, state and local government web resources and services.